Main page
METAR-TAF:

METAR-TAF

Airports :

Oil platform

P11-b, Netherlands

latitude: 52-21-36N, longitude: 3-20-30E, elevation: 24 m

Current weather observation

The report was made 33 minutes ago, at 23:25 UTC
Wind 9 kt from the East, varying between North and East/Southeast
Temperature 10°C
Humidity 76%
Pressure 1010 hPa
Visibility 10 km or more
Few clouds at a height of 1600 ft
Scattered clouds at a height of 2200 ft
Broken clouds at a height of 3500 ft

METAR: EHPG 172325Z AUTO 08009KT 010V120 9999 FEW016 SCT022 BKN035 10/06 Q1010 W///H///

Time: 00:58 (23:58 UTC)


TAF: missing

Weather observations and forecasts of more than 4000 airports (METAR and TAF reports).

The available stations are represented by yellow and red dots on the map.

Hover mouse over dot to see the name of the station.

Then click to see weather observations and forecasts.

To change the map : click on the green buttons with a black cross to zoom in, on the green button with a dash to zoom out, or on the green arrows for adjacent maps.


METAR-TAF: